SAS4177 ENBR-ENZV

Flight info

Callsign SAS4177
Flight time 0h 20m
Altitude 15000
Route BEGOD
Aircraft A319/M-SDE3FGHIRWY/LB1

Departure

Time 2026-04-30 21:12
Airport Bergen Airport, Flesland (ENBR)

Arrival

Time 2026-04-30 21:32
Airport Stavanger Airport, Sola (ENZV)
Time Latitude Longitude Altitude Speed Heading
2026-04-30 20:44 60.28658 5.22933 174 ft 0 kts 82°
2026-04-30 21:01 60.28656 5.22904 174 ft 2 kts 82°
2026-04-30 21:02 60.28653 5.22872 174 ft 2 kts 82°
2026-04-30 21:02 60.28652 5.22849 174 ft 0 kts 82°
2026-04-30 21:05 60.28653 5.22851 174 ft 1 kts 62°
2026-04-30 21:05 60.28659 5.22844 174 ft 1 kts 339°
2026-04-30 21:06 60.28666 5.22794 174 ft 8 kts 288°
2026-04-30 21:06 60.28674 5.22660 174 ft 12 kts 263°
2026-04-30 21:06 60.28671 5.22505 174 ft 9 kts 290°
2026-04-30 21:06 60.28695 5.22374 174 ft 11 kts 308°
2026-04-30 21:07 60.28779 5.22330 174 ft 14 kts 350°
2026-04-30 21:07 60.28883 5.22291 174 ft 13 kts 350°
2026-04-30 21:07 60.28975 5.22262 174 ft 13 kts 351°
2026-04-30 21:07 60.29059 5.22235 174 ft 11 kts 351°
2026-04-30 21:08 60.29125 5.22214 175 ft 10 kts 351°
2026-04-30 21:08 60.29199 5.22187 176 ft 11 kts 351°
2026-04-30 21:08 60.29283 5.22160 179 ft 14 kts 350°
2026-04-30 21:08 60.29395 5.22122 176 ft 19 kts 351°
2026-04-30 21:09 60.29516 5.22079 176 ft 18 kts 350°
2026-04-30 21:09 60.29623 5.22044 170 ft 15 kts 350°
2026-04-30 21:09 60.29734 5.22007 169 ft 17 kts 351°
2026-04-30 21:09 60.29846 5.21974 168 ft 17 kts 351°
2026-04-30 21:10 60.29948 5.21940 169 ft 15 kts 351°
2026-04-30 21:10 60.30033 5.21904 169 ft 12 kts 330°
2026-04-30 21:10 60.30049 5.21790 171 ft 9 kts 261°
2026-04-30 21:10 60.30040 5.21644 173 ft 9 kts 266°
2026-04-30 21:11 60.30028 5.21595 174 ft 3 kts 174°
2026-04-30 21:11 60.30016 5.21598 174 ft 0 kts 174°
2026-04-30 21:11 60.29791 5.21670 176 ft 81 kts 171°
2026-04-30 21:11 60.28938 5.21952 244 ft 156 kts 171°
2026-04-30 21:12 60.27870 5.22294 1126 ft 155 kts 172°
2026-04-30 21:12 60.26807 5.22621 2071 ft 157 kts 173°
2026-04-30 21:12 60.25651 5.22937 2636 ft 178 kts 174°
2026-04-30 21:12 60.24350 5.23359 3049 ft 200 kts 172°
2026-04-30 21:13 60.22893 5.23867 3534 ft 225 kts 172°
2026-04-30 21:13 60.21267 5.24432 4194 ft 247 kts 173°
2026-04-30 21:13 60.19538 5.25030 5174 ft 256 kts 174°
2026-04-30 21:13 60.17760 5.25637 6203 ft 262 kts 174°
2026-04-30 21:14 60.15952 5.26251 7234 ft 266 kts 174°
2026-04-30 21:14 60.14116 5.26877 8252 ft 269 kts 175°
2026-04-30 21:14 60.12259 5.27505 9288 ft 272 kts 175°
2026-04-30 21:14 60.10382 5.28098 10307 ft 273 kts 179°
2026-04-30 21:15 60.08472 5.28001 10980 ft 282 kts 193°
2026-04-30 21:15 60.06493 5.27066 11352 ft 302 kts 198°
2026-04-30 21:15 60.04427 5.25999 12074 ft 310 kts 198°
2026-04-30 21:15 60.02356 5.24936 12923 ft 313 kts 197°
2026-04-30 21:16 60.00237 5.23857 13805 ft 315 kts 197°
2026-04-30 21:16 59.98101 5.22785 14613 ft 318 kts 197°
2026-04-30 21:16 59.95918 5.21873 15176 ft 326 kts 189°
2026-04-30 21:16 59.93630 5.22263 15357 ft 335 kts 173°
2026-04-30 21:17 59.91343 5.23288 15405 ft 339 kts 172°
2026-04-30 21:17 59.89044 5.24369 15413 ft 340 kts 172°
2026-04-30 21:17 59.86743 5.25467 15407 ft 340 kts 171°
2026-04-30 21:17 59.84442 5.26560 15408 ft 340 kts 172°
2026-04-30 21:18 59.82137 5.27641 15410 ft 340 kts 172°
2026-04-30 21:18 59.79831 5.28709 15412 ft 340 kts 172°
2026-04-30 21:18 59.77527 5.29767 15411 ft 340 kts 172°
2026-04-30 21:18 59.75222 5.30819 15409 ft 340 kts 172°
2026-04-30 21:19 59.72914 5.31866 15412 ft 340 kts 172°
2026-04-30 21:19 59.70609 5.32912 15413 ft 340 kts 172°
2026-04-30 21:19 59.68301 5.33963 15410 ft 340 kts 172°
2026-04-30 21:19 59.65994 5.35015 15411 ft 340 kts 172°
2026-04-30 21:20 59.63686 5.36064 15424 ft 340 kts 172°
2026-04-30 21:20 59.61387 5.37104 14989 ft 339 kts 172°
2026-04-30 21:20 59.59095 5.38140 14509 ft 334 kts 172°
2026-04-30 21:20 59.56812 5.39173 13520 ft 341 kts 171°
2026-04-30 21:21 59.54469 5.40226 12573 ft 347 kts 171°
2026-04-30 21:21 59.52114 5.41289 11804 ft 347 kts 171°
2026-04-30 21:21 59.47438 5.43404 10375 ft 343 kts 171°
2026-04-30 21:22 59.45142 5.44439 10019 ft 330 kts 171°
2026-04-30 21:22 59.38949 5.47239 9624 ft 285 kts 172°
2026-04-30 21:23 59.37050 5.48090 9430 ft 276 kts 172°
2026-04-30 21:23 59.35186 5.48917 9109 ft 274 kts 172°
2026-04-30 21:23 59.31492 5.50536 8401 ft 271 kts 172°
2026-04-30 21:24 59.29656 5.51343 8038 ft 270 kts 171°
2026-04-30 21:24 59.27830 5.52152 7687 ft 269 kts 171°
2026-04-30 21:24 59.26014 5.52962 7337 ft 268 kts 171°
2026-04-30 21:24 59.24201 5.53773 6998 ft 266 kts 171°
2026-04-30 21:25 59.20604 5.55378 6262 ft 264 kts 171°
2026-04-30 21:25 59.18809 5.56167 5888 ft 264 kts 171°
2026-04-30 21:25 59.17024 5.56949 5581 ft 261 kts 171°
2026-04-30 21:26 59.13486 5.58502 4914 ft 252 kts 170°
2026-04-30 21:26 59.11838 5.59234 4787 ft 233 kts 170°
2026-04-30 21:27 59.08834 5.60564 4044 ft 215 kts 169°
2026-04-30 21:27 59.07370 5.61205 3446 ft 217 kts 169°
2026-04-30 21:27 59.05885 5.61853 3043 ft 217 kts 168°
2026-04-30 21:28 59.02968 5.63113 2400 ft 213 kts 171°
2026-04-30 21:28 59.01534 5.63345 2264 ft 201 kts 179°
2026-04-30 21:28 58.98902 5.63444 1960 ft 182 kts 180°
2026-04-30 21:29 58.97641 5.63482 1724 ft 180 kts 179°
2026-04-30 21:29 58.94040 5.63591 1014 ft 155 kts 179°
2026-04-30 21:30 58.92113 5.63649 621 ft 128 kts 179°
2026-04-30 21:31 58.89515 5.63728 118 ft 124 kts 178°
2026-04-30 21:31 58.88126 5.63771 31 ft 59 kts 179°
2026-04-30 21:32 58.87730 5.63779 33 ft 7 kts 184°
2026-04-30 21:32 58.87699 5.63701 34 ft 10 kts 265°
2026-04-30 21:32 58.87716 5.63540 32 ft 15 kts 287°
2026-04-30 21:32 58.87748 5.63348 32 ft 9 kts 295°
2026-04-30 21:33 58.87780 5.63302 32 ft 8 kts 342°
2026-04-30 21:33 58.87886 5.63323 31 ft 12 kts 22°
2026-04-30 21:33 58.87939 5.63364 31 ft 3 kts 18°
2026-04-30 21:34 58.87976 5.63370 31 ft 7 kts 347°
2026-04-30 21:34 58.88072 5.63135 30 ft 14 kts 311°
2026-04-30 21:34 58.88124 5.63030 29 ft 11 kts 314°
2026-04-30 21:35 58.88135 5.63008 29 ft 0 kts 314°